Wind_Speed
142 141 141 140 140 140 139 137 136 135 133 132 130 128 126 125 123 121 120 118 117 115 114 112 110 109 107 106 105 104 102 101 100 99 98 98 97 96 96 95 94 94 93 93 92 92 91 91 91 90 90 90 90 89 89 88 88 88 87 87 86 86 86 85 85 85 84 84 83 83 82 82 81 81 80 80 79 78 77 77 76 75 74 73 72 71
140 139 139 138 137 136 134 132 130 128 127 125 123 121 119 117 116 114 113 111 110 109 107 106 105 103 102 101 100 99 98 97 96 95 95 94 93 93 92 92 91 91 91 90 90 90 89 89 89 89 88 88 88 88 87 87 87 86 86 86 85 85 85 84 84 84 83 83 83 82 82 81 81 80 80 79 79 78 77 76 76 75 74 73 72 71
138 136 135 133 131 129 127 125 122 120 119 117 115 114 112 111 109 108 107 106 104 103 102 101 100 99 98 97 96 95 95 94 93 93 92 92 91 91 90 90 89 89 89 88 88 88 88 87 87 87 87 87 87 87 86 86 86 86 85 85 84 84 84 83 83 83 83 82 82 82 81 81 81 80 80 79 78 78 77 76 76 75 74 73 72 71
132 130 128 125 123 121 119 117 115 113 111 110 109 107 106 105 104 103 102 101 100 99 98 97 97 96 95 94 94 93 92 92 91 90 90 90 89 89 88 88 88 88 87 87 87 86 86 86 86 86 86 85 85 85 85 85 85 84 84 83 83 82 82 82 82 82 82 81 81 81 81 80 80 80 79 79 78 78 77 76 76 75 74 73 72 71
123 121 119 117 115 113 112 110 108 107 105 104 103 102 101 100 99 99 98 97 97 96 95 95 94 93 92 92 91 90 90 89 89 88 88 87 87 87 86 86 86 85 85 85 85 84 84 84 84 84 83 83 83 83 83 83 82 82 81 81 80 80 80 79 79 79 79 79 79 79 79 79 79 79 78 78 78 77 77 76 75 75 74 73 72 71
115 113 111 110 109 107 106 104 103 102 101 100 99 98 97 97 96 95 95 94 94 93 92 92 91 90 90 89 88 88 87 86 86 85 85 85 84 84 84 83 83 83 82 82 82 82 81 81 81 81 81 80 80 80 80 79 79 78 78 77 77 76 76 76 76 76 76 76 76 77 77 77 77 77 77 77 77 76 76 75 75 74 73 73 72 71
108 107 105 104 103 102 101 100 99 98 97 96 95 95 94 93 93 92 91 91 90 90 89 89 88 87 87 86 85 84 84 83 83 82 82 82 81 81 81 80 80 80 79 79 79 78 78 78 78 78 77 77 77 76 76 76 75 75 74 73 73 72 72 72 72 72 72 73 73 73 74 74 74 75 75 75 75 75 75 74 74 73 73 72 72 71
103 102 101 100 99 98 97 96 95 94 93 93 92 91 91 90 89 89 88 88 87 87 86 86 85 85 84 83 82 81 81 80 80 79 79 79 78 78 77 77 77 77 76 76 76 76 76 75 75 75 74 74 74 73 73 72 72 71 71 70 70 69 69 68 68 68 69 69 69 70 70 71 71 72 72 72 73 73 73 73 73 73 72 72 71 71
99 98 97 96 96 95 94 93 92 91 90 89 89 88 88 87 87 86 86 85 85 84 84 83 83 82 82 80 80 79 78 78 78 77 77 76 76 75 75 75 74 74 74 74 74 74 74 74 73 73 72 72 71 71 71 70 70 69 69 68 67 67 66 66 66 66 66 66 67 67 67 68 68 69 69 70 70 71 71 71 71 71 71 71 71 70
95 94 94 93 92 91 91 90 89 88 88 87 86 86 85 85 85 84 84 83 83 82 82 82 81 81 80 79 78 77 77 76 76 76 75 75 74 74 73 73 73 73 73 73 74 74 73 73 72 72 71 71 70 70 69 69 69 68 68 67 66 66 65 65 65 65 65 65 65 65 66 66 66 67 67 68 68 69 69 70 70 70 70 70 70 70
92 91 91 90 90 89 88 88 87 86 85 85 84 84 83 83 83 83 83 82 82 81 81 80 80 80 79 78 77 77 76 76 75 75 74 74 73 73 72 72 72 72 73 73 73 74 73 73 72 71 71 70 69 69 69 68 68 68 67 67 66 65 65 65 64 64 64 64 64 64 64 64 65 65 65 66 66 67 67 68 68 68 69 69 69 69
89 89 88 88 87 87 86 86 85 85 84 84 83 83 82 81 81 81 81 81 81 80 80 79 79 79 78 78 77 76 75 75 75 75 74 73 73 72 72 72 72 72 72 73 73 73 73 73 72 71 70 70 69 68 68 68 68 67 67 67 66 65 65 65 64 64 64 64 64 64 64 64 64 64 64 64 65 65 65 66 66 67 67 67 68 68
87 87 86 86 86 85 85 84 84 83 83 83 82 82 82 81 80 80 80 80 80 79 79 79 78 78 77 77 76 75 75 75 74 74 73 73 72 72 72 72 72 72 72 72 73 73 72 72 72 71 70 69 69 68 68 67 67 67 67 66 66 65 65 65 64 64 64 64 64 64 64 63 63 63 63 63 63 63 64 64 64 65 65 66 66 67
86 85 85 85 85 84 84 83 83 83 82 82 81 81 80 80 79 79 79 79 78 78 77 78 78 77 77 76 75 74 74 73 73 73 73 72 72 71 71 71 71 72 72 72 72 72 71 71 71 71 70 69 68 67 67 67 66 66 66 66 65 65 65 64 64 64 64 64 63 63 63 63 63 63 62 62 62 62 62 62 63 63 64 64 65 65
85 84 84 84 84 83 83 82 82 82 81 81 80 80 79 79 78 78 78 78 77 77 76 76 76 76 76 75 74 73 72 72 72 71 71 71 71 70 70 71 71 71 71 71 71 71 70 70 70 70 69 68 67 67 66 66 66 66 65 65 65 64 64 64 64 63 63 63 63 63 63 63 62 62 61 61 61 60 60 61 61 62 62 63 63 64
84 84 83 83 83 82 82 81 81 81 80 80 79 79 78 78 77 77 77 76 76 75 75 75 75 75 75 74 73 72 71 70 70 70 70 70 70 70 69 70 70 71 71 71 70 70 69 69 68 68 68 67 67 66 65 65 65 65 65 64 64 64 64 63 63 63 63 63 62 62 62 62 61 61 60 60 59 59 59 59 60 60 61 61 62 63
83 83 83 82 82 81 81 80 80 79 79 78 78 78 77 77 76 76 75 75 75 74 74 74 74 74 74 73 72 70 69 69 69 68 68 69 69 69 68 69 69 70 70 70 70 69 68 67 67 67 67 66 66 65 64 64 64 64 64 64 63 63 63 63 62 62 62 62 62 62 61 61 60 60 59 58 58 58 58 58 58 59 59 60 61 61
82 82 82 81 81 81 80 79 79 78 78 77 77 76 76 76 75 75 74 74 74 73 73 73 73 73 73 73 71 70 68 68 67 67 67 68 68 68 68 68 68 69 69 69 69 68 67 66 66 66 65 65 65 64 64 63 63 63 63 63 63 62 62 62 61 61 61 61 61 61 60 60 59 58 58 57 57 57 57 57 57 58 58 59 59 60
82 81 81 80 80 79 79 79 78 77 77 76 76 75 75 75 74 73 73 73 72 72 72 72 72 72 71 71 71 69 67 67 66 66 66 67 67 67 67 67 68 68 68 68 68 67 66 65 65 65 65 64 64 64 63 63 62 62 62 62 62 62 61 61 61 60 60 60 60 60 59 59 58 57 57 56 56 56 56 56 56 57 57 58 58 59
80 80 79 79 79 78 78 78 77 76 75 75 75 74 74 74 73 73 72 72 71 71 71 71 71 70 70 70 70 69 67 66 66 65 65 66 66 67 67 67 67 67 67 67 67 66 65 65 64 64 64 63 63 63 62 62 62 61 61 61 61 61 61 60 60 59 59 59 59 59 58 58 57 56 55 55 55 55 55 55 55 56 56 57 58 58
79 79 78 78 77 77 77 77 76 75 74 74 73 73 73 72 72 72 71 71 70 70 70 69 69 69 69 69 69 68 67 66 65 65 65 65 66 66 66 66 66 67 67 67 66 65 65 64 64 63 63 63 62 62 61 61 61 61 60 60 60 60 60 59 59 59 58 58 58 57 57 56 56 55 54 54 54 54 54 55 55 55 56 56 57 58
77 77 77 76 76 76 76 75 75 74 74 73 72 72 72 71 71 71 70 70 69 69 69 68 68 68 68 68 68 67 66 65 65 65 65 65 66 66 66 66 66 66 66 66 66 65 64 64 63 63 62 62 62 61 61 60 60 60 60 59 59 59 59 58 58 58 57 57 57 56 56 55 54 54 54 54 53 54 54 54 54 55 55 56 56 57
76 76 76 75 75 75 74 74 74 73 73 72 72 71 70 70 70 70 69 69 69 68 68 67 67 67 67 67 67 66 66 65 64 64 64 65 65 65 65 65 65 66 66 65 65 65 64 63 63 62 61 61 61 60 60 60 59 59 59 58 58 58 58 58 57 57 57 56 56 55 55 54 53 53 53 53 53 53 53 54 54 54 55 55 56 56
75 75 74 74 74 74 73 73 73 73 72 71 71 70 70 69 69 69 68 68 68 67 67 66 66 66 66 66 66 65 65 64 64 64 64 64 64 65 64 65 65 65 65 65 64 64 64 63 63 62 61 60 60 60 59 59 58 58 58 58 57 57 57 57 56 56 55 55 55 54 54 53 53 53 53 53 53 53 53 53 54 54 55 55 55 56
73 73 73 73 73 72 72 72 72 72 71 71 70 70 69 68 68 68 68 67 67 66 66 65 65 65 65 65 65 64 64 63 63 63 63 63 63 63 64 64 64 65 65 64 64 64 64 63 62 61 60 60 59 59 58 58 58 57 57 57 56 56 56 56 55 55 54 54 53 53 53 52 52 52 52 52 52 53 53 53 53 54 54 55 55 56
72 72 72 72 71 71 71 71 71 71 71 70 70 69 68 68 68 67 67 67 66 65 64 64 64 64 63 63 63 64 63 63 63 62 62 62 62 62 63 63 63 64 64 64 64 63 63 63 62 61 60 59 58 58 58 57 57 56 56 56 56 55 55 55 54 54 54 53 53 52 52 52 52 52 52 52 52 52 53 53 53 54 54 54 55 55
71 71 71 70 70 70 70 70 70 70 70 70 69 68 68 67 67 67 67 66 65 64 64 63 63 62 62 62 62 62 62 63 63 62 61 61 62 62 62 62 62 63 63 63 63 63 63 63 62 61 60 59 58 57 57 56 56 56 55 55 55 54 54 54 53 53 53 52 52 51 51 51 51 51 52 52 52 52 52 53 53 53 54 54 55 55
71 70 70 69 69 69 69 69 69 69 69 69 68 68 67 67 67 67 66 65 64 64 63 62 61 61 60 60 60 61 62 62 62 62 61 61 61 61 61 61 61 61 62 62 62 62 62 62 61 61 59 58 57 56 56 56 55 55 54 54 54 53 53 53 52 52 52 51 51 51 51 51 51 51 51 51 52 52 52 52 53 53 53 54 54 55
70 70 69 69 68 68 68 69 69 69 69 68 68 67 67 66 66 66 66 65 64 63 62 61 60 59 59 59 59 60 61 62 62 61 61 61 61 61 60 60 60 60 60 60 61 61 61 61 61 60 59 58 57 56 55 55 54 54 53 53 53 53 52 52 52 51 51 50 50 50 50 50 50 51 51 51 51 52 52 52 52 53 53 54 54 55
70 69 69 68 68 68 68 68 68 68 68 68 68 67 66 66 65 65 65 64 63 62 61 60 59 58 58 58 58 59 59 61 61 61 60 61 61 60 60 60 59 59 59 59 59 60 61 61 60 59 59 58 57 56 55 54 53 53 53 52 52 52 51 51 51 50 50 50 49 49 49 49 50 50 50 51 51 51 52 52 52 52 53 53 54 54
69 69 69 68 68 67 67 68 68 68 67 67 67 67 66 65 65 64 64 63 62 61 60 59 58 57 57 56 57 57 58 59 60 60 60 60 60 60 60 60 59 59 58 58 58 59 59 60 60 59 58 57 56 55 55 54 53 52 52 51 51 51 51 50 50 50 49 49 49 49 49 49 49 50 50 50 51 51 51 51 52 52 52 53 53 54
69 69 69 68 68 68 68 67 67 67 67 67 67 66 66 65 64 63 63 62 61 60 59 58 57 56 55 55 55 56 57 58 59 59 59 60 60 60 59 60 59 59 57 57 57 57 58 59 59 59 58 57 56 55 54 53 52 51 51 51 50 50 50 49 49 49 49 49 48 48 48 48 49 49 49 50 50 50 51 51 51 51 52 52 53 53
69 69 69 68 68 68 68 68 67 67 67 67 67 66 66 65 64 63 62 61 59 58 57 57 56 55 54 54 54 55 56 58 59 59 59 59 59 59 59 59 59 58 57 56 56 56 57 58 59 59 58 57 56 55 54 52 51 50 50 50 50 49 49 49 48 48 48 48 48 48 48 48 48 48 49 49 50 50 50 50 50 51 51 52 52 52
69 69 69 68 68 68 68 68 68 67 67 67 67 67 66 65 64 63 62 60 59 57 56 55 55 54 53 53 53 54 55 57 58 58 58 58 58 58 58 58 58 58 57 56 55 55 55 56 57 58 58 57 56 55 53 52 51 50 49 49 49 49 48 48 48 48 47 47 47 47 47 47 47 48 48 49 49 49 49 50 50 50 50 51 51 52
68 68 68 68 68 68 68 68 68 68 68 67 67 67 66 65 64 63 62 60 59 57 56 55 54 53 52 52 52 53 55 56 57 57 57 57 57 57 57 57 57 57 57 56 55 54 55 55 56 57 58 58 57 55 53 51 50 49 49 48 48 48 47 47 47 47 47 47 47 46 46 47 47 47 48 48 48 49 49 49 49 49 50 50 50 51
68 68 68 68 68 68 68 68 68 68 68 67 67 67 66 65 64 63 62 61 59 57 56 55 53 53 52 52 52 53 55 56 56 57 56 56 56 56 56 56 56 56 56 55 54 54 54 55 55 56 56 57 57 55 53 51 49 48 48 48 47 47 47 46 46 46 46 46 46 46 46 46 46 47 47 47 47 48 48 48 48 49 49 49 50 50
68 68 67 67 67 67 68 68 68 68 67 67 67 66 66 65 64 63 62 61 59 58 56 55 54 52 52 52 52 53 54 55 56 56 56 56 55 55 55 55 55 55 55 54 54 53 53 54 54 55 55 56 56 55 53 51 49 48 47 47 47 46 46 46 45 45 45 45 45 45 45 45 45 46 46 46 47 47 47 48 48 48 48 48 49 49
67 67 67 67 67 67 67 67 67 67 67 67 67 66 66 65 64 63 62 60 59 58 56 55 54 53 52 52 52 53 54 55 55 56 56 55 55 55 55 55 55 54 54 53 53 53 53 53 54 54 54 55 55 55 54 52 50 48 47 46 46 46 45 45 45 45 45 45 45 44 44 44 44 45 45 45 46 46 47 47 47 47 47 47 48 48
67 67 67 67 67 67 67 67 67 67 67 67 66 66 65 65 64 62 61 60 58 57 56 55 54 53 52 52 52 52 53 54 54 55 55 55 55 55 55 55 54 54 53 52 52 52 52 53 53 53 53 54 54 54 53 52 50 48 46 45 45 45 45 44 44 44 44 44 44 44 44 44 44 44 44 45 45 46 46 46 46 46 46 47 47 47
66 66 67 67 67 67 67 67 67 67 67 67 66 66 65 65 64 62 61 60 58 57 56 55 54 53 53 52 52 53 53 53 53 53 53 53 54 54 54 54 54 53 52 52 51 51 52 52 52 52 53 53 53 53 53 52 50 48 46 45 44 44 43 43 43 44 43 43 43 43 43 43 43 43 43 44 44 45 45 46 46 46 46 46 46 46
66 66 66 66 66 66 66 66 66 66 66 66 66 66 65 64 64 63 61 60 58 57 56 55 54 54 53 53 53 53 53 53 52 52 52 52 52 53 53 54 53 53 52 52 51 51 51 51 52 52 52 52 52 52 52 51 50 48 46 45 44 43 42 43 43 43 43 43 42 42 42 42 42 42 43 43 43 44 44 45 45 45 45 45 45 46
66 66 66 66 65 65 65 65 65 65 65 65 65 65 65 64 63 63 61 60 59 58 57 56 55 54 54 53 53 53 53 52 52 51 51 51 51 52 52 53 52 52 52 51 51 51 51 51 51 51 51 51 51 52 52 51 49 47 46 45 43 43 42 42 42 42 42 42 42 41 41 41 41 41 42 42 43 43 43 44 44 44 44 44 44 45
65 66 65 65 65 65 64 64 64 64 64 64 64 64 64 63 63 62 61 60 59 58 57 56 55 55 54 54 53 53 53 52 51 51 51 50 51 51 51 52 52 51 51 51 51 51 50 50 50 50 50 50 51 51 51 50 49 47 45 44 43 43 43 42 41 41 41 41 41 40 40 40 41 41 41 42 42 42 42 43 43 43 43 43 43 44
66 65 65 65 64 64 63 63 63 63 63 63 63 63 62 62 61 61 61 60 59 58 57 56 55 55 54 54 54 53 53 52 51 51 50 50 50 50 51 51 51 51 51 51 51 50 50 50 50 49 49 49 50 50 50 50 48 47 45 44 43 43 42 41 41 40 40 40 40 40 40 40 40 40 41 41 41 42 42 42 42 42 42 42 42 43
66 66 65 64 64 63 62 62 61 61 61 62 62 62 61 61 60 60 60 59 59 58 57 56 55 55 54 53 53 53 53 52 51 50 50 49 49 49 50 50 50 50 50 50 50 50 50 50 49 49 48 49 49 50 49 49 48 46 45 43 43 42 42 41 40 40 40 40 39 39 39 39 40 40 41 41 41 41 41 41 41 41 41 41 42 42
66 66 65 64 63 62 61 61 60 60 60 60 61 61 60 60 60 59 59 58 58 57 56 55 55 54 54 53 53 53 53 52 51 51 50 49 48 49 49 49 49 49 49 49 49 49 49 49 49 48 48 48 48 49 48 48 47 46 45 43 42 42 41 41 40 40 39 39 39 39 39 39 40 40 41 41 41 41 41 41 41 41 41 41 41 42
67 66 65 64 63 61 60 59 59 59 59 59 59 59 59 59 59 58 58 57 57 56 55 55 54 53 53 52 52 52 52 52 51 51 50 49 48 48 48 48 48 48 49 49 49 49 49 49 48 48 48 48 48 48 47 47 46 45 44 43 42 42 41 41 40 39 39 39 38 38 38 39 39 40 41 41 41 41 41 41 41 40 40 41 41 41
67 66 65 64 63 61 60 59 58 58 57 57 58 58 58 58 58 57 57 56 55 55 54 54 53 52 52 52 51 51 52 52 51 51 50 49 48 47 47 47 47 48 48 48 48 48 48 48 48 48 47 47 47 47 46 46 45 45 44 43 42 41 41 40 39 39 39 39 38 38 38 39 39 40 40 41 41 42 41 41 41 41 40 41 41 41
67 66 65 64 63 62 60 59 58 57 57 56 56 57 57 57 56 56 56 55 54 54 53 53 52 51 51 51 51 51 51 51 51 50 50 49 48 47 47 47 47 47 47 48 48 48 48 48 48 47 47 46 46 46 46 45 45 44 43 43 42 41 40 39 39 39 38 39 38 38 38 38 39 39 40 41 42 42 42 42 41 41 41 41 41 42
66 66 65 64 63 62 61 59 58 57 56 56 56 56 56 56 56 55 55 54 54 53 52 52 51 50 50 50 50 50 50 50 50 50 49 48 48 47 46 46 46 46 47 47 47 48 48 48 47 47 46 45 45 45 45 45 44 43 43 42 41 40 40 39 38 38 38 38 38 38 38 38 39 39 40 41 42 43 43 42 42 41 41 41 41 42
65 65 64 64 63 62 61 60 59 58 57 57 56 56 56 56 55 55 54 54 53 53 52 51 50 50 50 50 50 50 50 50 50 49 49 48 47 47 46 45 45 46 46 47 47 47 47 48 47 46 46 45 44 44 44 44 44 43 42 41 41 40 39 39 38 38 38 38 38 38 38 38 39 39 40 41 42 43 43 43 42 42 41 41 41 42
Wind_Direction
284 284 284 284 285 285 285 285 286 286 286 286 286 287 287 287 287 287 287 287 287 286 286 286 286 286 286 286 286 286 286 285 285 285 285 285 285 284 284 284 284 284 284 283 283 283 283 282 282 282 282 281 281 281 281 280 280 280 280 279 279 279 279 278 278 278 278 277 277 277 276 276 276 275 275 275 274 274 274 274 273 273 273 273 273 273
284 284 285 285 285 285 286 286 286 286 286 286 287 287 287 287 287 287 287 286 286 286 286 286 286 286 286 286 286 286 286 285 285 285 285 285 285 285 284 284 284 284 283 283 283 283 282 282 282 282 281 281 281 281 280 280 280 279 279 279 279 278 278 278 278 277 277 276 276 276 275 275 275 274 274 273 273 273 273 272 272 272 272 272 271 271
285 285 285 285 286 286 286 286 286 286 286 286 287 287 287 287 287 286 286 286 286 286 286 286 286 286 286 286 286 286 286 285 285 285 285 285 285 284 284 284 284 283 283 283 283 282 282 282 282 281 281 281 280 280 280 280 279 279 279 279 278 278 278 277 277 277 276 276 275 275 275 274 274 273 273 272 272 272 271 271 271 271 270 270 270 270
285 286 286 286 286 286 286 286 286 286 286 286 286 286 286 286 286 286 286 286 286 286 286 286 286 286 286 286 286 286 285 285 285 285 285 285 284 284 284 284 283 283 283 283 282 282 282 282 281 281 281 281 280 280 280 280 279 279 279 279 278 278 277 277 277 276 276 275 275 274 274 273 273 272 272 271 271 271 270 270 270 269 269 269 269 268
286 286 286 286 286 286 286 286 286 286 286 286 286 286 286 286 286 286 286 286 286 286 286 286 286 286 286 285 285 285 285 285 285 285 285 284 284 284 284 283 283 283 283 283 282 282 282 281 281 281 281 280 280 280 280 280 280 279 279 279 278 278 278 277 277 276 276 275 275 274 273 273 272 272 271 271 270 270 269 269 268 268 268 268 267 267
285 286 286 286 286 286 286 286 286 286 286 286 286 286 286 286 286 286 286 286 286 286 286 286 286 285 285 285 285 285 285 285 285 285 284 284 284 284 284 283 283 283 283 283 282 282 281 281 281 281 281 280 280 280 280 280 280 280 280 279 279 278 278 277 277 276 276 275 275 274 273 273 272 271 271 270 269 269 268 268 267 267 267 266 266 266
285 285 285 285 286 286 286 286 286 286 286 286 286 286 286 286 286 286 286 286 286 286 286 285 285 285 285 285 285 285 285 285 285 284 284 284 284 284 284 283 283 283 283 283 282 282 281 281 281 281 281 281 281 281 281 280 280 280 280 280 279 279 278 278 277 277 276 275 275 274 273 272 272 271 270 269 269 268 267 267 266 266 265 265 265 264
285 285 285 285 285 286 286 286 286 286 286 286 286 286 286 286 286 286 286 286 285 285 285 285 285 285 285 285 285 285 285 285 285 284 284 284 284 284 283 283 283 283 283 282 282 282 281 281 281 281 281 281 281 281 281 281 281 281 280 280 280 279 279 278 278 277 276 276 275 274 274 273 272 271 270 269 268 267 267 266 265 265 264 264 263 263
285 285 285 285 285 285 286 286 286 286 286 286 286 286 286 286 286 285 285 285 285 285 285 285 285 285 285 285 285 285 285 285 284 284 284 284 284 283 283 283 283 283 282 282 282 281 281 281 281 281 281 281 281 281 281 281 281 281 281 280 280 280 279 279 278 278 277 276 276 275 274 273 272 271 270 269 268 267 266 265 264 264 263 263 262 262
285 285 285 285 285 285 285 285 286 286 286 285 285 285 285 285 285 285 285 285 285 285 285 285 285 285 285 285 285 285 285 284 284 284 284 283 283 283 283 283 282 282 282 281 281 281 281 281 281 281 281 281 281 281 281 281 281 281 280 280 280 280 279 279 278 278 277 277 276 276 275 274 273 272 270 269 268 266 265 264 263 263 262 261 261 261
285 285 285 285 285 285 285 285 285 285 285 285 285 285 285 285 285 285 285 285 285 285 285 285 285 285 285 285 285 285 285 284 284 284 284 283 283 283 283 282 282 281 281 281 281 281 281 281 281 281 281 281 281 281 281 281 280 280 280 280 280 279 279 279 278 278 277 277 276 276 275 274 273 272 270 269 267 266 265 264 262 262 261 260 260 260
285 285 285 285 285 285 285 285 285 285 285 285 285 285 285 285 285 285 285 285 285 286 286 285 285 285 285 285 285 285 285 284 284 284 284 283 283 283 282 282 281 281 280 280 280 280 280 281 281 281 281 281 281 281 280 280 280 280 280 280 279 279 279 278 278 278 277 277 277 276 275 275 274 272 271 269 267 266 264 263 262 261 260 259 259 259
285 285 285 285 285 285 285 285 285 285 285 285 285 285 285 285 285 285 285 285 285 286 286 286 286 285 285 285 285 285 285 285 284 284 284 284 283 283 282 281 281 280 280 279 279 280 280 280 281 281 281 281 281 280 280 280 279 279 279 279 279 278 278 278 277 277 277 277 276 276 276 275 274 273 271 269 267 265 264 262 261 260 259 259 258 258
285 285 285 285 285 285 285 285 286 286 286 286 286 286 286 286 286 286 286 286 286 286 286 286 286 286 285 285 285 285 285 285 285 285 284 284 283 283 282 281 281 280 280 279 279 279 280 280 280 280 281 281 280 280 279 279 279 279 278 278 278 278 277 277 277 277 276 276 276 276 276 275 274 273 271 269 267 265 263 262 261 260 259 258 258 257
285 285 285 285 285 285 285 285 285 286 286 286 286 286 286 286 286 286 286 286 286 286 286 286 286 285 285 285 285 285 285 285 285 284 284 284 283 282 282 281 281 280 280 279 279 279 280 280 280 280 280 280 280 280 279 279 278 278 278 278 277 277 277 277 276 276 276 276 276 276 275 275 274 272 270 268 266 264 263 261 260 259 258 258 257 256
285 285 285 285 285 285 285 285 285 285 285 286 286 286 286 286 286 286 286 286 286 286 286 286 285 285 285 285 285 285 285 285 284 284 284 283 283 282 281 281 280 280 280 280 280 280 280 280 279 279 279 279 279 279 279 278 278 277 277 277 277 277 276 276 276 276 276 276 276 276 275 274 273 272 270 268 266 264 262 261 260 259 258 257 256 256
284 284 284 284 284 285 285 285 285 285 285 285 285 285 286 286 286 286 286 286 286 286 286 286 286 285 286 285 285 285 285 284 284 284 283 282 282 281 281 280 280 280 280 280 280 280 280 279 279 279 279 279 279 279 278 278 277 277 277 277 277 276 276 276 276 276 276 275 275 275 275 274 273 271 269 267 265 263 262 260 259 258 258 257 256 255
284 284 284 284 284 284 284 284 284 285 285 285 285 285 285 285 286 286 286 286 286 286 286 286 285 285 285 285 285 285 285 284 283 283 283 282 282 281 281 280 280 280 280 280 280 280 280 280 279 279 279 279 279 278 278 278 277 277 277 276 276 276 276 276 276 276 276 275 275 275 274 273 272 270 268 266 264 262 261 260 259 258 257 256 256 255
284 284 284 284 284 284 284 284 284 285 285 285 285 285 285 285 285 286 286 286 286 286 286 286 285 285 285 285 285 285 284 284 283 283 282 282 281 281 280 280 280 280 280 280 280 280 280 279 279 279 279 278 278 278 278 277 277 277 276 276 276 276 276 276 276 276 275 275 275 274 273 272 270 268 266 265 263 262 260 259 258 258 257 256 256 255
284 284 284 284 284 284 284 284 284 285 285 285 285 285 285 285 286 286 286 286 286 285 285 285 285 285 285 285 284 284 284 283 283 282 281 281 280 280 280 280 280 280 280 280 280 280 280 279 279 279 278 278 278 278 277 277 277 277 276 276 276 276 276 276 276 276 275 275 274 274 272 271 269 267 265 263 262 261 260 259 258 257 257 256 255 255
284 284 284 284 284 284 284 284 285 285 285 285 285 285 285 285 286 286 286 286 285 285 285 285 285 285 285 284 284 284 284 283 282 282 281 280 280 280 280 280 280 280 280 280 280 280 280 279 279 279 278 278 278 278 277 277 277 276 276 276 276 276 276 276 276 275 275 274 274 273 271 269 268 266 264 262 261 260 259 259 258 257 257 256 255 255
284 284 284 284 284 284 284 284 285 285 285 285 285 285 285 285 285 285 285 285 285 285 285 285 285 285 284 284 284 284 284 283 283 282 281 280 280 280 280 280 279 279 279 280 280 280 279 279 279 279 278 278 278 277 277 277 276 276 276 276 276 276 276 276 275 275 275 274 273 272 270 268 266 264 263 262 261 260 259 258 258 257 256 256 255 254
284 284 284 284 284 284 284 285 285 285 285 285 285 285 285 285 285 285 285 285 285 285 285 285 285 285 284 284 284 284 284 283 283 282 281 281 280 280 280 280 279 279 279 279 280 280 279 279 279 279 278 278 277 277 277 276 276 276 276 276 276 275 275 275 275 275 274 273 272 270 269 267 265 264 262 261 260 260 259 258 258 257 256 256 255 254
284 284 284 284 285 285 285 285 285 285 285 286 285 285 285 286 285 285 285 285 285 285 285 285 285 285 284 284 284 284 284 283 283 282 281 281 281 281 280 280 279 279 279 279 279 279 279 279 279 279 278 278 277 277 276 276 276 276 275 275 275 275 275 275 275 274 273 272 271 269 267 266 264 263 262 261 260 260 259 258 258 257 256 255 255 254
284 284 284 285 285 285 285 286 286 286 286 286 286 286 286 286 286 285 285 285 285 285 285 285 285 285 285 285 284 284 284 283 282 282 281 281 280 280 280 280 279 279 279 279 279 279 279 279 279 279 278 277 277 277 276 276 276 275 275 275 275 275 275 275 274 274 273 271 270 268 266 265 263 262 262 261 260 260 259 258 258 257 256 255 254 254
284 284 284 285 285 285 286 286 286 286 286 286 286 286 286 286 286 286 285 285 285 285 285 285 285 285 285 285 285 284 284 283 282 281 281 281 280 280 279 279 279 279 279 279 279 279 279 279 279 279 278 277 277 276 276 276 275 275 275 275 275 275 275 274 274 273 272 270 268 267 265 264 263 262 261 261 260 260 259 258 258 257 256 255 254 254
284 284 285 285 285 286 286 286 286 286 286 286 286 286 286 286 286 286 286 286 286 286 286 286 285 285 285 285 285 284 284 283 282 282 281 281 280 280 279 279 279 279 279 279 279 279 279 279 279 278 278 277 277 276 276 275 275 275 275 275 275 275 275 274 273 272 271 269 267 266 264 263 262 262 262 261 261 260 259 259 258 257 256 255 254 253
285 285 285 285 286 286 286 286 286 286 286 286 286 286 286 286 286 286 286 286 287 287 286 286 286 286 286 285 285 284 284 283 282 282 282 281 280 280 280 279 279 279 279 279 279 279 279 279 279 278 278 277 277 276 276 275 275 275 275 275 275 275 274 273 272 271 269 268 266 265 263 263 262 262 262 261 261 260 260 259 258 257 256 255 254 253
285 285 286 286 286 286 286 286 286 286 286 286 286 286 286 286 286 287 287 287 287 287 287 287 287 287 287 286 285 284 284 283 283 282 282 281 281 280 280 280 279 279 279 279 279 279 279 279 278 278 278 277 277 276 275 275 275 275 275 275 274 274 274 273 272 270 268 267 265 264 263 262 262 262 262 262 261 261 260 259 258 257 256 255 254 254
285 286 286 286 286 286 286 286 286 286 286 286 286 286 286 286 286 286 287 287 287 287 288 288 287 287 287 286 285 284 283 283 283 283 282 282 281 281 281 280 280 279 279 279 279 279 278 278 278 278 278 277 276 276 275 275 275 274 274 274 274 274 273 272 271 269 267 266 264 263 262 262 262 262 262 262 262 261 260 260 258 257 256 255 254 253
286 286 286 286 286 286 286 286 285 286 286 286 286 286 286 286 286 286 286 287 287 287 288 288 288 287 287 286 285 284 283 282 282 282 282 281 281 281 281 281 281 280 280 279 278 278 278 278 278 278 277 277 276 276 275 275 275 274 274 274 274 273 273 271 270 268 267 265 264 263 262 262 262 262 262 262 262 261 261 260 259 257 256 255 254 253
287 287 287 287 287 286 286 286 286 286 286 286 286 286 286 286 286 286 286 286 287 287 288 288 287 287 286 286 284 283 282 282 281 281 281 281 281 281 281 281 281 281 280 280 279 278 278 278 278 278 277 277 276 276 275 275 275 274 274 274 273 273 272 271 269 268 266 264 263 262 262 262 262 262 263 262 262 262 261 260 259 257 256 255 254 253
287 287 287 287 287 287 287 287 287 287 287 287 287 287 287 286 287 286 287 287 287 287 288 288 287 287 286 285 284 283 281 281 281 281 280 280 281 281 281 281 281 281 280 280 279 278 278 277 278 278 277 277 276 275 275 275 275 274 274 273 273 272 271 270 269 267 265 264 263 263 262 263 263 263 263 263 262 262 261 260 258 257 255 254 253 252
287 287 287 287 287 287 287 287 288 288 288 288 288 288 288 288 288 288 288 288 288 288 288 288 287 287 286 285 283 282 281 280 280 280 280 280 280 280 280 280 280 280 280 280 279 278 277 277 277 277 277 277 276 275 275 275 275 274 274 273 273 272 271 269 268 266 265 264 263 263 263 263 263 263 263 263 262 262 261 259 258 256 255 254 252 251
287 287 287 287 288 288 288 288 288 288 288 288 288 289 289 289 289 289 289 289 289 289 289 288 288 287 287 285 284 282 281 280 280 280 280 280 280 280 280 280 280 280 280 280 279 278 277 277 276 276 276 276 276 276 275 275 274 274 273 273 272 271 270 269 267 266 264 263 263 263 263 263 263 264 264 263 263 262 261 259 258 256 254 253 252 250
287 287 287 287 287 288 288 288 288 288 288 289 289 289 289 289 289 290 290 290 290 290 290 289 288 288 287 286 284 283 281 281 280 280 280 280 280 280 280 280 280 280 280 280 279 278 277 276 276 275 275 275 276 276 276 275 274 274 273 272 272 271 270 268 267 265 264 263 263 263 263 263 264 264 264 263 263 262 260 259 257 255 254 252 251 250
286 287 287 287 287 288 288 288 288 288 288 289 289 289 289 289 289 290 290 290 290 290 290 290 289 288 287 285 284 283 282 281 281 281 281 281 281 280 280 280 280 280 279 279 279 278 277 276 275 275 274 275 275 275 276 275 274 273 273 272 271 270 269 267 266 264 263 263 262 263 263 263 264 264 264 263 262 261 260 258 256 254 253 251 250 249
286 287 287 287 287 288 288 288 288 288 288 289 289 289 289 289 289 290 290 290 290 290 290 290 289 288 286 285 283 282 281 280 280 280 281 281 281 281 281 280 280 280 279 279 278 277 276 276 275 274 274 274 274 275 275 275 274 273 273 272 271 270 268 267 265 264 263 262 262 262 263 263 263 263 263 263 262 260 259 257 256 254 252 251 249 248
286 287 287 287 288 288 288 288 288 288 288 289 289 289 289 289 289 290 290 290 290 290 290 290 289 288 286 285 283 281 280 280 280 280 280 281 281 281 281 281 280 280 280 279 278 277 276 275 275 274 274 274 274 274 274 275 274 274 273 272 270 269 267 266 264 263 262 262 262 262 262 263 263 263 262 262 261 259 258 256 255 253 251 250 248 247
286 286 286 287 287 287 288 288 288 288 288 289 289 289 289 290 290 290 290 291 291 291 290 290 289 288 287 285 283 282 280 280 280 280 280 280 280 280 280 280 280 280 280 279 278 277 276 275 274 274 273 273 273 273 274 274 274 274 273 272 270 269 267 265 263 262 261 261 261 262 262 262 262 262 261 261 259 258 256 255 254 252 251 249 248 246
286 286 286 286 286 286 287 287 287 288 288 288 289 289 289 290 290 290 291 291 291 291 290 290 289 288 287 285 284 282 281 281 280 280 280 280 280 280 280 280 280 280 279 279 277 276 275 274 274 274 273 273 273 273 273 274 274 274 273 272 271 269 266 264 262 261 260 260 260 261 262 262 262 261 260 259 258 257 255 254 253 251 250 248 247 246
285 285 285 285 285 286 286 286 286 287 287 288 288 288 289 289 290 290 291 291 291 291 290 290 289 288 287 285 284 283 282 281 281 281 280 280 280 280 280 280 280 280 279 278 277 276 275 274 274 273 273 273 273 273 273 273 274 274 273 272 271 269 266 263 261 260 259 260 260 260 261 261 261 260 260 258 257 255 254 253 251 250 249 247 246 245
285 285 285 285 285 285 285 285 286 286 286 287 287 287 288 289 289 290 290 290 290 290 290 289 289 288 287 285 284 283 282 282 281 281 280 280 280 280 280 279 279 279 279 278 277 276 275 274 273 273 273 272 272 272 273 273 274 274 273 272 271 269 266 263 261 259 259 259 259 259 260 260 260 259 258 257 256 254 253 252 250 249 248 247 245 244
285 284 284 284 284 285 285 285 285 286 286 286 287 287 287 288 288 289 289 289 289 289 289 289 288 287 286 285 284 283 282 282 281 281 281 280 280 280 279 279 279 279 278 277 276 276 275 274 273 273 272 272 272 272 272 273 274 274 274 272 271 269 266 263 260 259 257 257 258 258 259 259 259 258 257 256 255 253 252 251 250 248 247 246 244 243
285 284 284 284 284 285 285 285 285 286 286 286 286 287 287 287 288 288 288 288 288 288 288 288 287 286 285 284 284 283 283 282 281 281 281 280 280 279 279 279 278 278 277 277 276 275 274 274 273 273 272 272 271 272 272 273 274 274 274 272 271 268 266 263 260 258 257 256 257 257 257 258 257 257 256 255 254 252 251 250 249 247 246 245 243 242
285 285 285 285 285 285 285 285 286 286 286 286 286 287 287 287 287 287 287 287 287 287 287 286 286 285 285 284 283 283 282 282 281 281 281 280 280 279 279 278 278 277 277 276 275 275 274 273 273 272 272 271 271 271 272 273 274 274 274 272 271 268 266 263 260 258 257 256 256 256 256 256 256 256 255 254 253 252 251 249 248 247 246 244 243 241
286 285 286 286 286 286 286 286 286 286 286 286 286 286 286 286 287 287 287 287 286 286 286 286 285 285 284 283 283 282 282 281 281 281 281 280 280 279 279 278 277 277 276 276 275 274 274 273 273 272 271 271 271 271 272 273 273 274 273 272 271 268 266 263 261 258 257 256 255 255 255 255 255 254 254 253 252 251 250 249 248 246 245 244 242 241
286 287 287 287 287 287 286 286 286 286 285 285 285 286 286 286 286 286 286 286 286 286 285 285 285 284 283 283 282 282 281 281 281 281 280 280 280 279 279 278 277 277 276 275 274 274 273 272 272 272 271 271 271 271 272 272 273 273 273 272 271 269 266 264 261 259 257 256 255 254 254 253 253 253 253 253 252 251 250 248 247 246 244 243 242 241
287 287 288 288 288 288 287 287 286 286 286 286 286 286 286 286 286 286 286 286 286 285 285 285 284 284 283 282 282 281 281 280 280 280 280 280 280 279 278 278 277 276 275 274 274 273 272 272 271 271 271 271 271 271 271 272 272 273 273 272 271 269 267 264 261 259 257 256 254 254 253 252 252 252 252 252 251 250 250 248 247 246 244 243 242 241
287 287 288 288 289 288 288 288 287 287 287 287 286 286 286 286 286 286 286 286 286 286 285 285 285 284 283 282 281 281 280 280 280 280 280 280 280 279 278 278 276 276 275 274 273 272 272 271 271 270 270 270 270 271 271 272 272 272 272 272 271 269 267 265 262 259 257 256 255 254 253 252 251 251 251 250 250 250 250 249 247 246 244 243 242 242
287 288 288 288 288 288 288 288 288 288 288 288 287 287 287 287 287 287 287 286 286 286 285 285 284 283 283 282 281 280 279 279 279 279 280 280 279 279 278 277 276 275 274 273 272 272 271 271 270 270 270 270 270 270 271 271 272 272 272 272 271 270 268 265 262 260 258 256 255 254 252 251 250 250 250 250 250 250 250 249 248 246 245 244 243 242
Height
10481 10478 10476 10475 10474 10473 10469 10468 10467 10466 10464 10461 10459 10458 10457 10455 10453 10451 10449 10448 10446 10444 10443 10442 10441 10440 10439 10438 10438 10437 10436 10434 10434 10433 10431 10430 10429 10428 10428 10426 10426 10425 10424 10424 10423 10423 10423 10422 10422 10421 10421 10421 10420 10420 10420 10420 10420 10421 10421 10421 10421 10421 10421 10421 10421 10421 10421 10422 10423 10423 10423 10424 10424 10425 10426 10427 10428 10429 10429 10431 10431 10433 10434 10435 10436 10438
10471 10469 10467 10466 10464 10463 10460 10458 10457 10456 10455 10453 10450 10449 10448 10446 10444 10443 10441 10439 10438 10436 10435 10434 10433 10432 10431 10430 10429 10428 10428 10426 10425 10424 10423 10423 10421 10420 10419 10418 10418 10417 10416 10416 10415 10414 10414 10414 10413 10413 10413 10413 10412 10412 10412 10412 10412 10413 10413 10413 10413 10413 10413 10413 10413 10413 10414 10414 10414 10415 10416 10416 10417 10418 10418 10419 10420 10421 10422 10423 10424 10426 10426 10428 10429 10431
10461 10459 10457 10455 10454 10453 10451 10448 10448 10447 10446 10444 10442 10441 10439 10438 10436 10434 10433 10431 10429 10428 10428 10426 10425 10424 10423 10422 10421 10421 10419 10418 10418 10416 10415 10414 10413 10413 10411 10411 10409 10409 10408 10408 10408 10407 10406 10406 10405 10405 10404 10404 10404 10404 10404 10404 10404 10404 10404 10404 10405 10405 10405 10405 10405 10406 10406 10406 10407 10408 10408 10408 10409 10410 10411 10411 10413 10414 10415 10416 10417 10418 10419 10421 10422 10424
10451 10450 10448 10446 10444 10443 10441 10440 10439 10438 10437 10436 10434 10433 10431 10429 10428 10426 10424 10423 10422 10421 10419 10419 10418 10417 10416 10414 10414 10413 10412 10411 10410 10409 10408 10407 10406 10404 10404 10403 10402 10401 10401 10400 10399 10399 10398 10398 10398 10397 10396 10396 10396 10396 10396 10396 10396 10396 10396 10396 10397 10397 10398 10398 10398 10398 10398 10398 10399 10399 10400 10401 10401 10402 10403 10404 10405 10406 10408 10409 10410 10411 10413 10414 10415 10417
10442 10441 10439 10437 10436 10434 10433 10432 10431 10431 10429 10428 10426 10425 10424 10422 10421 10419 10418 10416 10414 10413 10412 10411 10410 10409 10408 10408 10406 10406 10405 10404 10403 10401 10401 10399 10398 10397 10396 10395 10394 10394 10393 10393 10392 10391 10391 10390 10389 10389 10389 10389 10388 10388 10388 10388 10388 10388 10388 10389 10389 10389 10389 10390 10390 10390 10390 10391 10391 10391 10392 10393 10394 10394 10395 10396 10398 10399 10400 10401 10403 10404 10405 10406 10408 10409
10433 10433 10431 10429 10428 10426 10424 10424 10424 10423 10422 10420 10419 10418 10416 10415 10413 10412 10410 10409 10407 10406 10404 10403 10403 10402 10401 10400 10399 10399 10398 10397 10396 10394 10393 10392 10391 10390 10389 10388 10387 10386 10386 10385 10384 10384 10383 10383 10383 10382 10381 10381 10381 10381 10380 10380 10380 10380 10381 10381 10381 10382 10382 10383 10383 10383 10383 10383 10383 10384 10384 10385 10386 10387 10388 10389 10390 10391 10393 10394 10395 10396 10398 10399 10401 10403
10425 10424 10423 10422 10420 10419 10418 10417 10416 10415 10414 10413 10411 10410 10409 10408 10406 10404 10403 10401 10400 10399 10398 10396 10395 10394 10394 10393 10393 10392 10391 10390 10389 10388 10386 10386 10384 10383 10382 10381 10380 10379 10378 10378 10377 10377 10376 10376 10375 10375 10374 10374 10374 10374 10373 10373 10373 10373 10373 10374 10374 10374 10375 10375 10375 10376 10376 10376 10376 10376 10377 10378 10378 10379 10380 10381 10383 10384 10385 10386 10388 10389 10391 10393 10394 10396
10418 10416 10416 10414 10413 10411 10410 10409 10409 10408 10407 10406 10404 10403 10401 10400 10399 10398 10396 10395 10393 10392 10391 10389 10388 10388 10387 10386 10386 10386 10384 10384 10383 10381 10380 10379 10378 10377 10376 10375 10374 10373 10372 10371 10370 10369 10369 10369 10369 10368 10368 10368 10368 10367 10367 10367 10366 10366 10367 10367 10367 10368 10368 10368 10368 10369 10369 10369 10369 10369 10370 10370 10371 10372 10373 10374 10375 10376 10378 10379 10381 10382 10384 10385 10387 10388
10411 10409 10408 10408 10406 10405 10403 10402 10401 10401 10401 10399 10398 10396 10394 10393 10391 10391 10389 10388 10387 10386 10384 10383 10381 10380 10379 10380 10379 10379 10378 10377 10376 10374 10374 10373 10372 10371 10370 10369 10368 10367 10366 10364 10364 10363 10363 10363 10362 10362 10362 10361 10361 10361 10361 10361 10360 10360 10360 10361 10361 10361 10361 10361 10362 10362 10362 10362 10362 10363 10363 10363 10364 10365 10366 10366 10368 10369 10370 10372 10373 10375 10376 10378 10379 10381
10405 10403 10402 10400 10399 10399 10397 10395 10394 10394 10394 10393 10391 10389 10388 10386 10385 10383 10383 10381 10380 10379 10378 10376 10374 10373 10373 10373 10373 10373 10372 10371 10369 10369 10368 10366 10366 10365 10364 10364 10363 10361 10360 10359 10358 10357 10356 10356 10356 10356 10356 10356 10355 10355 10355 10354 10354 10354 10354 10354 10354 10354 10355 10355 10355 10355 10356 10356 10356 10356 10356 10357 10358 10358 10359 10359 10361 10362 10363 10364 10366 10368 10369 10371 10373 10374
10398 10397 10396 10394 10393 10392 10391 10389 10388 10387 10387 10386 10384 10383 10382 10381 10379 10378 10375 10374 10373 10373 10372 10370 10369 10368 10366 10366 10366 10366 10366 10364 10363 10362 10361 10361 10360 10359 10359 10358 10357 10356 10354 10353 10352 10351 10350 10350 10350 10349 10349 10349 10349 10349 10349 10349 10348 10348 10348 10348 10348 10349 10349 10349 10349 10349 10349 10349 10349 10349 10350 10350 10351 10351 10352 10353 10354 10354 10356 10357 10359 10360 10362 10364 10365 10367
10392 10391 10389 10388 10386 10385 10384 10383 10382 10381 10380 10379 10378 10376 10375 10375 10374 10373 10369 10368 10366 10366 10365 10364 10363 10361 10361 10359 10359 10359 10359 10358 10356 10356 10355 10354 10354 10354 10353 10352 10351 10350 10348 10347 10346 10345 10344 10344 10344 10344 10344 10344 10344 10344 10343 10343 10343 10343 10343 10343 10343 10343 10343 10343 10343 10343 10343 10343 10343 10343 10343 10344 10344 10344 10345 10346 10347 10348 10349 10350 10352 10353 10355 10356 10358 10360
10386 10385 10383 10381 10380 10379 10378 10376 10375 10374 10373 10373 10371 10369 10368 10368 10368 10366 10364 10362 10361 10360 10359 10358 10356 10354 10354 10354 10353 10353 10353 10351 10350 10349 10348 10348 10348 10347 10347 10346 10344 10343 10343 10341 10340 10339 10339 10339 10338 10338 10338 10338 10338 10338 10338 10338 10337 10337 10336 10336 10336 10336 10336 10336 10336 10336 10336 10336 10337 10337 10337 10338 10338 10338 10339 10339 10340 10341 10343 10344 10345 10346 10348 10350 10351 10353
10380 10379 10377 10375 10374 10373 10371 10370 10369 10368 10366 10366 10365 10363 10362 10361 10361 10360 10358 10356 10355 10354 10354 10351 10349 10348 10348 10347 10348 10347 10347 10345 10344 10343 10342 10341 10341 10341 10340 10339 10338 10337 10336 10335 10334 10334 10334 10333 10333 10332 10332 10331 10331 10332 10332 10331 10331 10331 10331 10331 10331 10330 10330 10330 10330 10330 10331 10331 10331 10331 10331 10331 10331 10332 10333 10333 10334 10335 10336 10337 10338 10340 10341 10343 10345 10347
10374 10373 10371 10369 10368 10366 10366 10364 10363 10361 10360 10359 10358 10358 10356 10355 10354 10353 10353 10351 10349 10349 10348 10346 10343 10342 10341 10341 10341 10341 10341 10339 10338 10337 10336 10335 10334 10334 10334 10332 10331 10330 10329 10329 10328 10328 10328 10328 10327 10326 10326 10326 10326 10326 10326 10326 10325 10325 10325 10324 10324 10324 10324 10324 10324 10324 10324 10324 10324 10325 10325 10325 10326 10326 10326 10327 10328 10328 10329 10331 10332 10334 10335 10337 10339 10340
10368 10367 10365 10363 10361 10361 10359 10358 10357 10355 10354 10353 10353 10351 10350 10349 10348 10348 10346 10344 10344 10343 10342 10339 10338 10336 10334 10334 10335 10336 10335 10334 10333 10332 10330 10328 10328 10328 10328 10326 10324 10323 10323 10323 10322 10322 10323 10322 10321 10321 10320 10320 10319 10320 10320 10319 10319 10319 10319 10319 10319 10318 10318 10318 10319 10319 10319 10319 10319 10319 10319 10319 10319 10319 10320 10321 10321 10323 10324 10325 10326 10328 10329 10331 10332 10334
10362 10361 10359 10358 10356 10354 10353 10352 10351 10349 10348 10348 10346 10346 10344 10343 10342 10341 10340 10339 10338 10337 10336 10334 10332 10330 10328 10327 10328 10329 10329 10328 10327 10326 10324 10322 10321 10321 10321 10320 10319 10318 10317 10316 10316 10316 10316 10316 10316 10315 10315 10314 10314 10314 10314 10314 10314 10313 10313 10313 10313 10313 10313 10313 10313 10313 10313 10313 10313 10313 10313 10313 10313 10314 10314 10315 10316 10316 10318 10319 10320 10321 10323 10324 10326 10328
10356 10354 10353 10351 10349 10348 10347 10346 10345 10344 10343 10342 10341 10339 10338 10338 10336 10335 10334 10333 10332 10331 10329 10328 10327 10324 10323 10321 10320 10321 10324 10323 10321 10319 10319 10316 10314 10314 10315 10314 10313 10312 10311 10310 10309 10310 10310 10310 10310 10309 10309 10309 10309 10308 10308 10308 10308 10308 10308 10307 10307 10307 10307 10307 10307 10307 10307 10307 10307 10307 10307 10307 10308 10308 10308 10309 10310 10311 10312 10313 10314 10316 10317 10319 10320 10322
10349 10348 10346 10345 10343 10342 10341 10339 10339 10338 10337 10336 10335 10333 10332 10331 10331 10329 10328 10328 10326 10325 10323 10322 10321 10319 10318 10315 10314 10314 10317 10316 10314 10313 10313 10311 10309 10308 10309 10308 10308 10306 10305 10304 10304 10304 10304 10304 10304 10304 10303 10303 10303 10303 10303 10303 10302 10302 10301 10301 10301 10301 10301 10301 10301 10301 10301 10301 10301 10301 10301 10301 10301 10302 10303 10303 10304 10305 10306 10308 10309 10310 10311 10313 10314 10316
10343 10341 10340 10339 10338 10336 10334 10333 10333 10332 10331 10330 10329 10328 10326 10325 10324 10323 10322 10321 10320 10319 10318 10316 10314 10313 10312 10310 10308 10308 10309 10309 10309 10308 10306 10305 10303 10302 10303 10302 10301 10300 10299 10299 10298 10298 10298 10298 10298 10298 10298 10298 10298 10297 10297 10297 10296 10296 10296 10296 10296 10296 10296 10296 10296 10296 10296 10296 10296 10295 10295 10296 10296 10296 10297 10298 10299 10300 10301 10302 10303 10304 10306 10308 10309 10310
10336 10334 10334 10333 10332 10330 10328 10327 10327 10326 10326 10324 10323 10322 10321 10319 10318 10317 10316 10315 10314 10313 10312 10311 10309 10307 10306 10304 10303 10302 10303 10304 10303 10301 10301 10300 10298 10296 10296 10296 10296 10294 10293 10293 10293 10293 10293 10292 10292 10292 10292 10292 10292 10292 10291 10291 10291 10291 10291 10290 10290 10290 10290 10290 10290 10290 10290 10289 10289 10289 10289 10289 10290 10291 10291 10293 10293 10294 10296 10297 10298 10299 10301 10302 10303 10304
10331 10329 10328 10327 10326 10324 10323 10321 10321 10320 10320 10319 10318 10316 10315 10314 10313 10311 10311 10309 10308 10307 10306 10305 10303 10302 10301 10298 10297 10296 10298 10298 10297 10296 10296 10294 10293 10291 10291 10291 10290 10289 10288 10287 10287 10287 10286 10286 10286 10286 10286 10286 10286 10286 10286 10286 10286 10286 10285 10285 10285 10284 10284 10284 10284 10284 10284 10284 10284 10284 10284 10284 10284 10285 10286 10287 10288 10289 10291 10291 10293 10294 10295 10296 10298 10299
10326 10323 10321 10321 10320 10319 10318 10316 10315 10314 10314 10313 10312 10311 10309 10309 10307 10306 10304 10303 10303 10301 10301 10299 10298 10296 10294 10293 10292 10291 10291 10291 10291 10291 10290 10289 10288 10287 10287 10286 10284 10283 10283 10282 10281 10281 10281 10280 10280 10280 10281 10281 10281 10281 10281 10281 10280 10280 10280 10279 10279 10279 10279 10279 10279 10279 10278 10278 10278 10278 10278 10279 10279 10280 10281 10282 10283 10284 10285 10286 10288 10289 10290 10291 10293 10294
10321 10318 10316 10315 10314 10313 10311 10310 10309 10308 10307 10306 10306 10304 10304 10303 10301 10300 10299 10298 10296 10296 10295 10294 10292 10290 10289 10288 10286 10285 10285 10285 10285 10284 10284 10284 10283 10282 10281 10280 10279 10278 10277 10277 10276 10276 10275 10274 10274 10274 10275 10275 10275 10275 10275 10275 10275 10275 10274 10274 10274 10274 10274 10273 10273 10273 10273 10273 10273 10273 10273 10273 10274 10275 10276 10277 10278 10279 10280 10281 10283 10284 10284 10286 10287 10288
10315 10313 10311 10310 10309 10308 10306 10305 10303 10302 10301 10300 10299 10299 10298 10297 10296 10294 10293 10292 10291 10291 10289 10288 10286 10284 10283 10283 10281 10279 10279 10279 10279 10279 10278 10278 10278 10277 10276 10275 10274 10273 10272 10271 10271 10270 10269 10269 10268 10269 10269 10269 10270 10270 10270 10269 10269 10269 10269 10269 10269 10269 10268 10268 10268 10268 10268 10268 10268 10268 10268 10268 10269 10270 10271 10272 10273 10274 10275 10276 10278 10278 10279 10281 10281 10283
10310 10308 10307 10305 10304 10303 10301 10299 10298 10297 10296 10294 10294 10293 10292 10291 10289 10288 10287 10286 10286 10285 10284 10283 10281 10279 10279 10278 10275 10274 10273 10273 10273 10273 10273 10273 10273 10271 10271 10269 10269 10268 10267 10266 10266 10265 10264 10263 10263 10263 10263 10264 10264 10264 10264 10264 10264 10264 10264 10264 10264 10264 10263 10263 10263 10263 10263 10262 10262 10263 10263 10263 10264 10265 10266 10267 10268 10269 10270 10271 10272 10273 10274 10275 10276 10277
10304 10303 10302 10301 10299 10298 10296 10294 10293 10291 10290 10289 10288 10288 10287 10285 10284 10282 10281 10280 10280 10279 10278 10277 10276 10275 10274 10273 10270 10268 10267 10266 10266 10267 10268 10268 10266 10266 10265 10264 10264 10263 10262 10261 10261 10259 10258 10258 10257 10257 10258 10258 10259 10259 10259 10259 10259 10259 10259 10259 10259 10258 10258 10258 10258 10258 10257 10257 10257 10258 10258 10258 10259 10260 10261 10262 10263 10264 10264 10266 10267 10268 10269 10269 10270 10271
10299 10298 10296 10295 10294 10293 10291 10289 10288 10286 10284 10283 10283 10282 10281 10280 10278 10276 10275 10275 10274 10274 10273 10272 10271 10269 10269 10267 10265 10263 10261 10260 10260 10261 10262 10262 10261 10260 10259 10259 10258 10258 10257 10256 10256 10254 10253 10252 10251 10251 10251 10252 10253 10254 10254 10254 10254 10254 10254 10254 10254 10253 10253 10253 10253 10252 10252 10252 10252 10253 10253 10254 10254 10255 10256 10257 10258 10259 10259 10261 10261 10262 10263 10264 10264 10266
10293 10292 10291 10290 10289 10287 10286 10284 10282 10280 10279 10278 10276 10276 10275 10274 10273 10271 10269 10269 10269 10268 10267 10267 10266 10265 10263 10262 10260 10258 10256 10254 10254 10255 10256 10256 10254 10254 10254 10253 10253 10253 10253 10252 10251 10249 10248 10246 10246 10246 10246 10246 10247 10248 10248 10249 10249 10249 10249 10249 10248 10248 10248 10248 10248 10247 10247 10247 10248 10248 10248 10249 10249 10251 10251 10252 10253 10253 10254 10255 10256 10257 10258 10258 10259 10259
10287 10286 10285 10284 10283 10281 10280 10278 10276 10275 10274 10273 10271 10270 10269 10269 10268 10266 10265 10264 10264 10263 10262 10262 10261 10260 10259 10257 10255 10253 10251 10249 10249 10249 10250 10249 10249 10248 10248 10248 10247 10248 10248 10248 10246 10245 10243 10241 10241 10241 10241 10241 10241 10242 10243 10244 10244 10244 10244 10244 10243 10243 10243 10243 10243 10242 10242 10243 10243 10243 10244 10244 10245 10246 10246 10247 10248 10248 10249 10250 10251 10251 10252 10253 10253 10254
10281 10280 10279 10278 10277 10276 10274 10273 10271 10269 10268 10267 10266 10264 10264 10263 10263 10261 10260 10259 10259 10258 10257 10256 10256 10255 10254 10253 10251 10248 10246 10244 10244 10244 10245 10244 10243 10243 10243 10241 10241 10242 10243 10243 10242 10240 10238 10236 10235 10234 10235 10236 10236 10236 10237 10238 10239 10239 10239 10239 10238 10238 10238 10238 10238 10237 10238 10238 10238 10238 10239 10240 10241 10241 10241 10242 10243 10243 10244 10244 10245 10246 10246 10247 10248 10248
10275 10274 10273 10271 10270 10269 10268 10266 10265 10264 10263 10261 10259 10259 10258 10257 10256 10256 10255 10254 10254 10254 10253 10252 10251 10250 10249 10248 10246 10243 10241 10239 10239 10240 10240 10239 10238 10238 10237 10236 10236 10236 10237 10238 10237 10236 10234 10231 10229 10229 10229 10229 10230 10231 10231 10233 10233 10234 10234 10234 10233 10233 10233 10233 10233 10233 10233 10233 10233 10234 10234 10235 10236 10236 10237 10237 10238 10238 10239 10239 10240 10241 10241 10241 10242 10243
10269 10268 10266 10265 10263 10262 10261 10260 10259 10257 10256 10254 10253 10252 10251 10251 10250 10250 10249 10249 10249 10249 10248 10247 10246 10245 10244 10243 10241 10239 10236 10234 10234 10234 10235 10234 10233 10233 10232 10231 10230 10231 10231 10232 10232 10231 10230 10228 10225 10223 10223 10223 10224 10225 10226 10228 10228 10229 10229 10228 10228 10228 10228 10228 10228 10228 10228 10228 10229 10229 10230 10231 10231 10231 10232 10232 10233 10233 10233 10234 10234 10235 10236 10236 10237 10238
10264 10262 10260 10259 10258 10256 10255 10254 10253 10251 10249 10248 10247 10246 10244 10244 10243 10243 10243 10243 10243 10243 10243 10242 10241 10240 10239 10238 10236 10234 10232 10230 10229 10229 10229 10229 10228 10228 10227 10226 10225 10225 10226 10226 10226 10226 10225 10223 10221 10219 10218 10217 10218 10219 10221 10223 10223 10224 10224 10223 10223 10223 10223 10223 10223 10223 10223 10224 10224 10225 10226 10226 10226 10227 10227 10227 10228 10228 10228 10229 10229 10230 10231 10231 10232 10233
10258 10256 10255 10253 10251 10250 10249 10248 10246 10245 10244 10242 10241 10239 10238 10238 10236 10236 10236 10236 10236 10237 10237 10237 10236 10234 10233 10232 10230 10228 10226 10225 10224 10224 10224 10224 10223 10223 10222 10221 10221 10220 10221 10221 10221 10221 10220 10219 10217 10215 10213 10212 10212 10213 10215 10217 10218 10219 10218 10218 10218 10218 10218 10218 10218 10219 10219 10219 10219 10220 10221 10221 10222 10222 10222 10222 10223 10223 10223 10224 10224 10224 10225 10226 10227 10228
10253 10251 10249 10248 10246 10245 10243 10242 10241 10239 10238 10236 10235 10234 10233 10231 10231 10230 10230 10229 10230 10230 10231 10231 10230 10229 10228 10227 10224 10223 10221 10220 10219 10219 10219 10219 10219 10218 10217 10216 10216 10216 10216 10216 10216 10216 10215 10214 10213 10211 10209 10208 10206 10207 10209 10211 10213 10214 10213 10213 10213 10213 10213 10214 10214 10214 10214 10215 10215 10216 10216 10217 10217 10217 10217 10218 10218 10218 10218 10218 10219 10219 10220 10221 10222 10223
10247 10246 10244 10243 10241 10240 10238 10237 10236 10234 10233 10231 10229 10229 10228 10226 10226 10225 10224 10224 10224 10224 10224 10224 10224 10224 10223 10222 10220 10218 10216 10214 10214 10214 10214 10214 10214 10213 10212 10211 10211 10211 10211 10211 10211 10211 10210 10209 10208 10206 10204 10203 10202 10202 10203 10205 10207 10208 10208 10208 10208 10208 10208 10209 10209 10210 10210 10211 10211 10211 10212 10213 10213 10213 10213 10213 10213 10213 10213 10213 10214 10214 10215 10216 10217 10218
10241 10240 10238 10237 10236 10234 10233 10231 10230 10229 10227 10226 10224 10223 10222 10221 10220 10219 10219 10219 10219 10219 10219 10219 10218 10218 10218 10216 10214 10213 10211 10210 10209 10209 10209 10208 10208 10208 10207 10206 10206 10206 10206 10206 10206 10206 10204 10204 10203 10201 10200 10199 10198 10198 10198 10199 10201 10202 10203 10204 10204 10204 10204 10204 10205 10205 10206 10206 10207 10207 10208 10208 10208 10208 10208 10208 10208 10208 10208 10208 10209 10209 10211 10211 10213 10213
10236 10234 10233 10232 10231 10229 10228 10226 10224 10223 10221 10220 10219 10218 10216 10216 10214 10214 10214 10214 10214 10214 10213 10213 10213 10212 10211 10210 10209 10208 10206 10206 10205 10204 10204 10203 10203 10203 10202 10201 10201 10201 10201 10201 10201 10200 10199 10199 10198 10197 10196 10194 10194 10193 10193 10194 10195 10196 10198 10199 10199 10199 10199 10200 10201 10201 10201 10202 10203 10203 10203 10204 10204 10204 10204 10204 10203 10203 10203 10204 10204 10205 10206 10207 10208 10209
10231 10230 10228 10227 10226 10224 10223 10221 10219 10218 10216 10214 10213 10212 10211 10210 10209 10209 10209 10209 10208 10208 10208 10207 10206 10206 10205 10204 10203 10201 10201 10201 10200 10200 10199 10199 10198 10198 10197 10196 10196 10196 10196 10196 10196 10195 10194 10194 10193 10192 10191 10190 10189 10188 10188 10188 10189 10191 10193 10194 10194 10194 10195 10196 10196 10196 10197 10198 10198 10198 10199 10199 10199 10199 10199 10199 10199 10199 10199 10199 10200 10201 10201 10203 10203 10204
10226 10225 10224 10223 10221 10220 10218 10217 10215 10213 10211 10209 10208 10207 10206 10205 10204 10203 10203 10203 10203 10203 10202 10201 10201 10200 10199 10198 10196 10196 10195 10195 10195 10195 10194 10194 10194 10193 10192 10191 10191 10191 10191 10191 10190 10190 10189 10189 10188 10188 10187 10186 10185 10184 10183 10183 10184 10186 10188 10189 10189 10190 10191 10191 10192 10192 10193 10193 10194 10194 10195 10195 10195 10195 10195 10194 10194 10194 10194 10195 10196 10196 10197 10198 10199 10200
10221 10219 10218 10218 10216 10215 10214 10213 10211 10209 10208 10206 10204 10202 10201 10200 10199 10198 10198 10198 10198 10197 10197 10196 10195 10194 10193 10192 10191 10190 10190 10190 10190 10190 10189 10189 10189 10188 10188 10187 10186 10186 10186 10185 10185 10184 10184 10184 10183 10183 10182 10181 10181 10179 10178 10179 10180 10181 10183 10184 10184 10186 10186 10186 10187 10188 10189 10189 10189 10190 10191 10191 10191 10191 10191 10190 10190 10190 10191 10191 10191 10192 10193 10194 10195 10196
10215 10214 10213 10212 10211 10210 10209 10208 10206 10204 10203 10201 10199 10198 10197 10196 10195 10194 10193 10193 10192 10192 10191 10191 10190 10188 10187 10186 10185 10184 10184 10184 10185 10185 10184 10184 10184 10183 10183 10182 10182 10181 10181 10180 10179 10179 10179 10179 10179 10178 10178 10177 10176 10175 10174 10174 10175 10176 10178 10179 10180 10181 10181 10181 10183 10184 10185 10185 10186 10186 10186 10186 10186 10186 10186 10186 10186 10186 10186 10187 10188 10188 10189 10190 10191 10192
10209 10208 10207 10206 10206 10205 10204 10203 10201 10200 10198 10197 10195 10193 10193 10192 10191 10190 10189 10188 10188 10187 10186 10185 10184 10183 10182 10181 10179 10179 10179 10179 10179 10180 10179 10179 10179 10179 10178 10178 10177 10177 10176 10175 10174 10174 10174 10174 10174 10174 10173 10173 10172 10171 10170 10170 10171 10172 10173 10175 10176 10176 10176 10177 10179 10180 10181 10181 10181 10182 10183 10183 10183 10183 10182 10182 10182 10182 10183 10183 10184 10184 10185 10186 10188 10188
10203 10202 10201 10201 10200 10199 10199 10198 10197 10196 10194 10192 10190 10189 10188 10187 10186 10186 10184 10183 10183 10181 10181 10181 10179 10178 10177 10176 10175 10174 10174 10174 10174 10174 10174 10174 10174 10174 10173 10173 10173 10172 10171 10171 10170 10169 10169 10169 10169 10169 10169 10168 10168 10166 10166 10166 10166 10168 10169 10170 10171 10171 10171 10173 10174 10175 10176 10177 10178 10178 10179 10179 10179 10178 10178 10178 10178 10178 10179 10179 10180 10181 10181 10183 10184 10185
10196 10195 10194 10194 10194 10194 10193 10193 10192 10191 10189 10188 10186 10184 10183 10182 10181 10181 10180 10179 10178 10176 10176 10176 10174 10173 10172 10171 10171 10169 10169 10169 10169 10169 10169 10169 10169 10169 10169 10168 10168 10167 10166 10166 10165 10165 10164 10164 10164 10164 10164 10164 10163 10162 10162 10162 10163 10163 10164 10165 10166 10166 10167 10168 10169 10171 10172 10173 10174 10174 10175 10175 10174 10174 10174 10174 10174 10174 10175 10176 10176 10177 10178 10179 10180 10181
10189 10189 10188 10188 10188 10188 10188 10188 10187 10186 10184 10183 10181 10180 10178 10178 10176 10175 10174 10174 10173 10171 10171 10170 10169 10168 10167 10166 10166 10165 10164 10164 10163 10163 10164 10164 10164 10164 10164 10164 10163 10163 10162 10161 10161 10160 10159 10159 10159 10159 10159 10159 10159 10158 10158 10158 10159 10159 10159 10161 10161 10162 10163 10164 10165 10167 10168 10169 10169 10171 10171 10171 10171 10170 10170 10170 10171 10171 10171 10172 10173 10174 10174 10176 10177 10178
10183 10182 10181 10181 10181 10181 10181 10182 10181 10181 10179 10178 10177 10175 10174 10173 10171 10170 10169 10169 10168 10167 10166 10165 10164 10163 10163 10162 10161 10161 10159 10159 10158 10158 10158 10159 10159 10159 10159 10159 10158 10158 10157 10156 10156 10155 10155 10154 10154 10154 10154 10154 10154 10154 10154 10154 10154 10154 10155 10156 10157 10158 10158 10159 10161 10163 10164 10164 10166 10166 10167 10167 10167 10167 10167 10167 10166 10167 10168 10168 10169 10170 10171 10173 10174 10175
10177 10176 10175 10175 10174 10174 10174 10175 10175 10174 10174 10173 10171 10170 10169 10168 10167 10165 10164 10163 10163 10161 10161 10160 10159 10158 10158 10157 10156 10156 10155 10154 10154 10153 10153 10154 10154 10154 10154 10154 10154 10153 10153 10152 10151 10151 10150 10150 10149 10149 10150 10150 10151 10150 10150 10150 10151 10151 10151 10151 10152 10153 10154 10156 10157 10158 10159 10160 10161 10162 10163 10163 10163 10163 10163 10163 10163 10163 10163 10164 10165 10166 10168 10169 10171 10172
10172 10171 10170 10169 10168 10168 10168 10168 10168 10168 10168 10167 10166 10164 10163 10162 10161 10160 10159 10158 10157 10156 10156 10155 10154 10153 10153 10152 10152 10151 10151 10149 10149 10149 10149 10149 10149 10149 10149 10149 10149 10149 10148 10147 10146 10146 10145 10145 10145 10145 10146 10146 10146 10146 10146 10146 10146 10146 10147 10148 10148 10149 10150 10151 10153 10154 10155 10156 10157 10158 10159 10159 10159 10160 10159 10159 10159 10159 10159 10160 10161 10163 10164 10166 10168 10168
10168 10166 10165 10164 10163 10162 10162 10162 10162 10161 10161 10160 10159 10158 10158 10156 10156 10154 10154 10153 10152 10151 10151 10150 10149 10149 10148 10147 10147 10146 10146 10145 10144 10144 10144 10144 10144 10144 10144 10144 10144 10144 10143 10143 10142 10141 10141 10140 10140 10140 10141 10143 10143 10143 10142 10142 10142 10143 10143 10143 10144 10145 10146 10147 10148 10149 10151 10151 10153 10153 10154 10155 10156 10156 10156 10156 10155 10155 10156 10156 10158 10159 10161 10163 10164 10165